This is the latest recevied weather packets stored in our database for station/object KN6CW-3. If no packets are shown the sender has not sent any weather packets the latest 1 day(s).
| Time | Temp. | Humidity | Pressure | Rain* | Wind** | Luminosity | Snow |
|---|---|---|---|---|---|---|---|
| 1778036094 | 17.78° C | 57% | 1008.2 hPa | 0 mm | 1.34 m/s, 227° | 0 W/m² | - |
| 1778035794 | 17.78° C | 57% | 1008.1 hPa | 0 mm | 1.34 m/s, 178° | 0 W/m² | - |
| 1778035494 | 17.78° C | 57% | 1008.2 hPa | 0 mm | 0.89 m/s, 199° | 0 W/m² | - |
| 1778035193 | 17.78° C | 57% | 1008.3 hPa | 0 mm | 0.89 m/s, 174° | 0 W/m² | - |
| 1778034893 | 18.33° C | 57% | 1008.3 hPa | 0 mm | 0.89 m/s, 180° | 0 W/m² | - |
| 1778034593 | 18.33° C | 56% | 1008.3 hPa | 0 mm | 0.89 m/s, 181° | 0 W/m² | - |
| 1778034292 | 18.33° C | 56% | 1008.3 hPa | 0 mm | 0.89 m/s, 167° | 0 W/m² | - |
| 1778033992 | 18.33° C | 55% | 1008.3 hPa | 0 mm | 0.89 m/s, 195° | 0 W/m² | - |
| 1778033692 | 18.89° C | 54% | 1008.4 hPa | 0 mm | 0.45 m/s, 156° | 0 W/m² | - |
| 1778033392 | 18.89° C | 53% | 1008.3 hPa | 0 mm | 0.89 m/s, 241° | 0 W/m² | - |
| 1778033091 | 19.44° C | 53% | 1008.3 hPa | 0 mm | 0.89 m/s, 196° | 0 W/m² | - |
| 1778032791 | 19.44° C | 52% | 1008.2 hPa | 0 mm | 1.34 m/s, 204° | 0 W/m² | - |
| 1778032491 | 19.44° C | 51% | 1008.2 hPa | 0 mm | 1.34 m/s, 166° | 0 W/m² | - |
| 1778032190 | 20° C | 51% | 1008.2 hPa | 0 mm | 1.79 m/s, 173° | 0 W/m² | - |
| 1778031890 | 20° C | 51% | 1008.1 hPa | 0 mm | 1.34 m/s, 224° | 0 W/m² | - |
| 1778031590 | 20° C | 51% | 1008.1 hPa | 0 mm | 1.79 m/s, 163° | 0 W/m² | - |
| 1778031290 | 20° C | 51% | 1008.1 hPa | 0 mm | 1.79 m/s, 237° | 0 W/m² | - |
| 1778030989 | 20° C | 52% | 1008 hPa | 0 mm | 1.79 m/s, 241° | 0 W/m² | - |
| 1778030689 | 20° C | 52% | 1008 hPa | 0 mm | 1.34 m/s, 202° | 0 W/m² | - |
| 1778030389 | 20° C | 52% | 1007.9 hPa | 0 mm | 1.34 m/s, 202° | 0 W/m² | - |
| 1778030089 | 20° C | 52% | 1007.9 hPa | 0 mm | 1.34 m/s, 224° | 0 W/m² | - |
| 1778029788 | 20° C | 51% | 1007.8 hPa | 0 mm | 1.34 m/s, 243° | 0 W/m² | - |
| 1778029488 | 20° C | 51% | 1007.8 hPa | 0 mm | 1.34 m/s, 199° | 0 W/m² | - |
| 1778029188 | 20° C | 51% | 1007.8 hPa | 0 mm | 1.34 m/s, 213° | 0 W/m² | - |
| 1778028887 | 20° C | 51% | 1007.6 hPa | 0 mm | 1.34 m/s, 221° | 0 W/m² | - |
* Rain latest hour (hover to see other rain measurements)
** Current wind speed in m/s (hover to see current wind gust speed)